Regional Weather Roundup
Issued by NWS

Home | Current Version | Previous Version | Text Only | Print | Product List | Glossary Off
Versions: 1 2 3 4 5 6 7 8 9 10 11 12 13 14 15 16 17 18 19 20 21 22 23 24 25 26 27 28 29 30 31 32 33 34 35 36 37 38 39 40 41 42 43 44 45 46 47 48 49 50

000
ASUS45 KABQ 282301
RWRNM
WEATHER ROUNDUP FOR NEW MEXICO
NATIONAL WEATHER SERVICE ALBUQUERQUE NM
500 PM MDT SAT MAR 28 2015

NOTE: "FAIR" MEANS FEW OR NO CLOUDS BELOW 12,000 FEET AGL WITH NO
       SIGNIFICANT WEATHER OR OBSTRUCTIONS TO VISION.

      THIS PRODUCT IS RELEASED AS TWO VERSIONS.  ONE VERSION NEAR
      THE TOP OF THE HOUR CONTAINING PRELIMINARY DATA FROM ALBUQUERQUE
      AND OTHER STATIONS.  A FINAL VERSION WITH ADDITIONAL DATA IS
      ISSUED ABOUT 10 MINUTES AFTER THE HOUR.

NMZ501-503-504-510>518-290000-
NORTHWEST PLATEAU/NORTHCENTRAL MOUNTAINS

CITY           SKY/WX    TMP DP  RH WIND       PRES   REMARKS
FARMINGTON     SUNNY     76  19  11 NW14G24   30.11F
SANTA FE       SUNNY     76  13   9 W13       30.11F
TAOS           SUNNY     72  18  13 W9G23     30.16F
ANGEL FIRE     FAIR      63  19  18 W21G30    30.23S

$$
NMZ402-403-502-505>509-290000-
WESTCENTRAL MOUNTAINS/SOUTHWEST MOUNTAINS

CITY           SKY/WX    TMP DP  RH WIND       PRES   REMARKS
GALLUP         SUNNY     74   7   7 W10G22    30.19F
GRANTS         SUNNY     74   4   6 W17G26    30.20S

$$
NMZ407-409-411-412-290000-
SOUTHERN DESERTS

CITY           SKY/WX    TMP DP  RH WIND       PRES   REMARKS
DEMING         SUNNY     85  -7   3 W21G30    30.09S
ALAMOGORDO     MOSUNNY   84  14   7 N7        30.06F
T OR C         SUNNY     85  14   7 S16       30.05F

$$
NMZ519>523-290000-
CENTRAL VALLEYS/CENTRAL HIGHLANDS

CITY           SKY/WX    TMP DP  RH WIND       PRES   REMARKS
ALBUQUERQUE    SUNNY     79  18  10 W8        30.08F
DOUBLE EAGLE   SUNNY     77  16  10 SW8       30.12F
MORIARTY ARPT  FAIR      75  13   9 W17G29    30.15F
CLINES CORNERS SUNNY     72  14  11 NW22G30   30.16F
BELEN          FAIR      82   8   6 NW15      30.07F
SOCORRO        FAIR      84  17   8 NW5       30.07F

$$
NMZ524>526-539-540-290000-
SOUTHCENTRAL MOUNTAINS

CITY           SKY/WX    TMP DP  RH WIND       PRES   REMARKS
RUIDOSO        NOT AVBL

$$
NMZ527>531-290000-
NORTHEAST HIGHLANDS/NORTHEAST PLAINS

CITY           SKY/WX    TMP DP  RH WIND       PRES   REMARKS
LAS VEGAS      SUNNY     73  13  10 CALM      30.12F
RATON          SUNNY     75  15  10 S13G22    30.04F
CLAYTON        SUNNY     79  19  10 SW8       30.00F

$$
NMZ532>537-290000-
EASTCENTRAL PLAINS

CITY           SKY/WX    TMP DP  RH WIND       PRES   REMARKS
TUCUMCARI      SUNNY     83  14   7 CALM      29.98F
CANNON AFB     NOT AVBL
CLOVIS AIRPORT SUNNY     81  23  12 CALM      30.01F

$$
NMZ028-029-538-290000-
SOUTHEAST PLAINS

CITY           SKY/WX    TMP DP  RH WIND       PRES   REMARKS
ROSWELL        SUNNY     87  20   8 N12G20    29.98F
ARTESIA        SUNNY     88  23   9 N10       29.98F
CARLSBAD       SUNNY     89  25  10 MISG      29.96F
HOBBS          SUNNY     84  19   9 W12       30.00S


$$


USA.gov is the U.S. government's official web portal to all federal, state and local government web resources and services.